Regional Weather Roundup
Issued by NWS

Home | Current Version | Previous Version | Graphics & Text | Print | Product List | Glossary On
Versions: 1 2 3 4 5 6 7 8 9 10 11 12 13 14 15 16 17 18 19 20 21 22 23 24 25 26 27 28 29 30 31 32 33 34 35 36 37 38 39 40 41 42 43 44 45 46 47 48 49 50
657
ASUS43 KLSX 271110
RWRMO

WEATHER SUMMARY FOR MISSOURI
NATIONAL WEATHER SERVICE SPRINGFIELD MO
600 AM CDT MON MAR 27 2017

NOTE: "FAIR" INDICATES FEW OR NO CLOUDS BELOW 12,000 FEET WITH NO
       SIGNIFICANT WEATHER AND/OR OBSTRUCTIONS TO VISIBILITY.
       CURRENT SKY AND/OR WEATHER CONDITIONS ARE NOT AVAILABLE FOR
       CHILLICOTHE AND FARMINGTON.

MOZ001>031-035>038-043-044-053-054-271200-
...NORTHERN AND WESTERN MISSOURI...

CITY           SKY/WX    TMP DP  RH WIND       PRES   REMARKS
KANSAS CTY INT LGT RAIN  46  45  96 N8        29.86R
KANSAS C DTWN  LGT RAIN  48  45  89 N6        29.85R
LEE`S SUMMIT   RAIN      47  46  97 N10       29.84R FOG
ST JOSEPH      RAIN      46  46 100 N8        29.88R FOG
CHILLICOTHE      N/A     47  45  93 NE8       29.87F
KIRKSVILLE     CLOUDY    46  45  96 NE6       29.89F

$$
MOZ066>068-077>081-088>096-101>105-271200-
...SOUTHWEST MISSOURI...

CITY           SKY/WX    TMP DP  RH WIND       PRES   REMARKS
SPRINGFIELD    LGT RAIN  55  54  96 SE10      29.77F
JOPLIN         TSTM      55  54  96 S5        29.75R
BRANSON        LGT RAIN  54  54 100 E3        29.79F

$$
MOZ032>034-039>042-045>050-055>058-069>072-271200-
...CENTRAL MISSOURI...

CITY           SKY/WX    TMP DP  RH WIND       PRES   REMARKS
COLUMBIA       LGT RAIN  49  49 100 E14       29.83F FOG
JEFFERSON CITY LGT RAIN  54  50  86 E12       29.82F
ROLLA          CLOUDY    51  51 100 E8        29.80F
SEDALIA        CLOUDY    50  48  93 NE12      29.81F
WHITEMAN AFB   LGT RAIN  48  48 100 E13         N/A  FOG
WARRENSBURG    LGT RAIN  46  45  93 N5        29.80R
OSAGE BEACH    CLOUDY   N/A N/A N/A E6        29.81S

$$
MOZ051-052-059>065-271200-
...EAST CENTRAL MISSOURI...

CITY           SKY/WX    TMP DP  RH WIND       PRES   REMARKS
ST LOUIS INTL  CLOUDY    52  48  86 N3        29.86R
SPIRIT OF STL  CLOUDY    50  50 100 SW5       29.87R
ST CHARLES     CLOUDY    50  49  96 NE5       29.86R

$$
MOZ072>076-082>087-097>100-106>115-271200-
...SOUTH CENTRAL AND SOUTHEAST MISSOURI...

CITY           SKY/WX    TMP DP  RH WIND       PRES   REMARKS
CAPE GIRARDEAU CLOUDY    57  51  80 SE8       29.85R
FARMINGTON     TSTM      53  51  93 SE5       29.89S
POPLAR BLUFF   CLOUDY    56  55  97 E10       29.82F
WEST PLAINS    LGT RAIN  56  54  93 E10       29.78F

$$




USA.gov is the U.S. government's official web portal to all federal, state and local government web resources and services.